• In Uzbekistan
  • List of Countries
  • For 7 days
  • Water Temperature
  • Satellite Maps
  • Weather Map
  • Weather Widgets
  • user-avatar
    Login

    Hourly Weather Canberra

    Today, 23 August, Wednesday

    Time Temperature Precipitation Wind Pressure Humidity
    00:00 +5°C° 0 mm 1 mps 711 mmHg 86%
    01:00 +5°C° 0 mm 1 mps 711 mmHg 86%
    02:00 +4°C° 0 mm 1 mps 711 mmHg 86%
    03:00 +4°C° 0 mm 1 mps 711 mmHg 86%
    04:00 +4°C° 0 mm 1 mps 710 mmHg 86%
    05:00 +4°C° 0 mm 1 mps 710 mmHg 85%
    06:00 +4°C° 0 mm 1 mps 710 mmHg 84%
    07:00 +4°C° 0 mm 1 mps 710 mmHg 83%
    08:00 +6°C° 0 mm 2 mps 710 mmHg 73%
    09:00 +9°C° 0 mm 2 mps 711 mmHg 63%
    10:00 +13°C° 0 mm 2 mps 711 mmHg 53%
    11:00 +14°C° 0 mm 2 mps 711 mmHg 51%
    12:00 +14°C° 0 mm 3 mps 710 mmHg 49%
    13:00 +15°C° 0 mm 4 mps 710 mmHg 46%
    14:00 +14°C° 0 mm 4 mps 710 mmHg 49%
    15:00 +14°C° 0 mm 4 mps 709 mmHg 51%
    16:00 +13°C° 0 mm 3 mps 709 mmHg 55%
    17:00 +11°C° 0 mm 3 mps 709 mmHg 64%
    18:00 +9°C° 0 mm 3 mps 709 mmHg 73%
    19:00 +7°C° 0 mm 2 mps 709 mmHg 82%
    20:00 +6°C° 0 mm 2 mps 709 mmHg 84%
    21:00 +5°C° 0 mm 2 mps 710 mmHg 86%
    22:00 +5°C° 0 mm 2 mps 710 mmHg 88%
    23:00 +4°C° 0 mm 2 mps 709 mmHg 88%

    Tomorrow, 24 August, Thursday

    Time Temperature Precipitation Wind Pressure Humidity
    00:00 +4°C° 0 mm 2 mps 709 mmHg 89%
    01:00 +3°C° 0 mm 2 mps 709 mmHg 89%
    02:00 +3°C° 0 mm 2 mps 709 mmHg 90%
    03:00 +4°C° 0 mm 1 mps 709 mmHg 90%
    04:00 +4°C° 0 mm 1 mps 709 mmHg 91%
    05:00 +4°C° 0 mm 1 mps 709 mmHg 91%
    06:00 +4°C° 0 mm 1 mps 709 mmHg 91%
    07:00 +4°C° 0 mm 1 mps 710 mmHg 91%
    08:00 +6°C° 0 mm 1 mps 710 mmHg 82%
    09:00 +9°C° 0 mm 1 mps 710 mmHg 72%
    10:00 +11°C° 0 mm 1 mps 711 mmHg 63%
    11:00 +11°C° 0.1 mm 1 mps 711 mmHg 62%
    12:00 +12°C° 0.1 mm 2 mps 710 mmHg 61%
    13:00 +12°C° 0.1 mm 2 mps 710 mmHg 60%
    14:00 +12°C° 0.4 mm 2 mps 710 mmHg 61%
    15:00 +12°C° 0.4 mm 2 mps 710 mmHg 62%
    16:00 +10°C° 0.4 mm 2 mps 710 mmHg 63%
    17:00 +8°C° 0.3 mm 2 mps 711 mmHg 68%
    18:00 +7°C° 0.3 mm 2 mps 711 mmHg 73%
    19:00 +5°C° 0.3 mm 2 mps 712 mmHg 78%
    20:00 +4°C° 0 mm 2 mps 712 mmHg 80%
    21:00 +3°C° 0 mm 2 mps 712 mmHg 82%
    22:00 +2°C° 0 mm 2 mps 713 mmHg 84%
    23:00 +2°C° 0 mm 2 mps 713 mmHg 84%

    Day after tomorrow, 25 August, Friday

    Time Temperature Precipitation Wind Pressure Humidity
    00:00 +1°C° 0 mm 2 mps 713 mmHg 83%
    01:00 -1°C° 0 mm 2 mps 713 mmHg 83%
    02:00 -1°C° 0 mm 2 mps 713 mmHg 83%
    03:00 -1°C° 0 mm 2 mps 713 mmHg 83%
    04:00 -1°C° 0 mm 2 mps 713 mmHg 84%
    05:00 +1°C° 0 mm 1 mps 713 mmHg 84%
    06:00 +1°C° 0 mm 1 mps 714 mmHg 85%
    07:00 +1°C° 0 mm 1 mps 714 mmHg 85%
    08:00 +4°C° 0 mm 1 mps 714 mmHg 72%
    09:00 +8°C° 0 mm 1 mps 715 mmHg 59%
    10:00 +11°C° 0 mm 1 mps 715 mmHg 46%
    11:00 +13°C° 0 mm 1 mps 715 mmHg 42%
    12:00 +14°C° 0 mm 1 mps 714 mmHg 37%
    13:00 +15°C° 0 mm 1 mps 714 mmHg 33%
    14:00 +15°C° 0 mm 1 mps 714 mmHg 36%
    15:00 +14°C° 0 mm 2 mps 714 mmHg 39%
    16:00 +14°C° 0 mm 2 mps 713 mmHg 42%
    17:00 +10°C° 0 mm 2 mps 714 mmHg 55%
    18:00 +7°C° 0 mm 2 mps 714 mmHg 68%
    19:00 +6°C° 0 mm 1 mps 714 mmHg 81%
    20:00 +5°C° 0 mm 1 mps 714 mmHg 84%
    21:00 +4°C° 0 mm 1 mps 715 mmHg 87%
    22:00 +4°C° 0 mm 1 mps 715 mmHg 90%
    23:00 +3°C° 0 mm 1 mps 715 mmHg 91%

    26 August, Saturday

    Time Temperature Precipitation Wind Pressure Humidity
    00:00 +3°C° 0 mm 1 mps 714 mmHg 91%
    01:00 +2°C° 0 mm 0 mps 714 mmHg 92%
    02:00 +2°C° 0 mm 0 mps 714 mmHg 92%
    03:00 +2°C° 0 mm 1 mps 714 mmHg 92%
    04:00 +2°C° 0 mm 1 mps 714 mmHg 93%
    05:00 +2°C° 0 mm 1 mps 714 mmHg 92%
    06:00 +2°C° 0 mm 1 mps 714 mmHg 92%
    07:00 +2°C° 0 mm 1 mps 715 mmHg 92%
    08:00 +5°C° 0 mm 1 mps 715 mmHg 79%
    09:00 +9°C° 0 mm 1 mps 715 mmHg 66%
    10:00 +12°C° 0 mm 1 mps 715 mmHg 53%
    11:00 +13°C° 0 mm 2 mps 715 mmHg 49%
    12:00 +14°C° 0 mm 2 mps 714 mmHg 45%
    13:00 +15°C° 0 mm 2 mps 714 mmHg 42%
    14:00 +14°C° 0 mm 3 mps 714 mmHg 45%
    15:00 +13°C° 0 mm 3 mps 713 mmHg 49%
    16:00 +13°C° 0 mm 3 mps 713 mmHg 53%
    17:00 +11°C° 0 mm 3 mps 714 mmHg 65%
    18:00 +8°C° 0 mm 2 mps 714 mmHg 78%
    19:00 +6°C° 0 mm 2 mps 714 mmHg 90%
    20:00 +5°C° 0 mm 2 mps 714 mmHg 92%
    21:00 +5°C° 0 mm 1 mps 715 mmHg 94%
    22:00 +5°C° 0 mm 1 mps 715 mmHg 95%
    23:00 +4°C° 0 mm 1 mps 715 mmHg 96%

    27 August, Sunday

    Time Temperature Precipitation Wind Pressure Humidity
    00:00 +4°C° 0 mm 1 mps 715 mmHg 96%
    01:00 +4°C° 0 mm 1 mps 714 mmHg 96%
    02:00 +4°C° 0 mm 1 mps 714 mmHg 96%
    03:00 +5°C° 0 mm 1 mps 714 mmHg 95%
    04:00 +5°C° 0 mm 1 mps 714 mmHg 94%
    05:00 +5°C° 0 mm 1 mps 715 mmHg 94%
    06:00 +5°C° 0 mm 1 mps 715 mmHg 94%
    07:00 +5°C° 0 mm 1 mps 715 mmHg 94%
    08:00 +8°C° 0 mm 1 mps 716 mmHg 83%
    09:00 +10°C° 0 mm 1 mps 716 mmHg 72%
    10:00 +12°C° 0 mm 1 mps 716 mmHg 61%
    11:00 +13°C° 0 mm 1 mps 716 mmHg 56%
    12:00 +14°C° 0 mm 1 mps 715 mmHg 51%
    13:00 +15°C° 0 mm 1 mps 715 mmHg 46%
    14:00 +15°C° 0.1 mm 1 mps 715 mmHg 49%
    15:00 +14°C° 0.1 mm 1 mps 714 mmHg 52%
    16:00 +14°C° 0.1 mm 1 mps 714 mmHg 55%
    17:00 +12°C° 0.1 mm 1 mps 715 mmHg 65%
    18:00 +10°C° 0.1 mm 1 mps 715 mmHg 76%
    19:00 +8°C° 0.1 mm 1 mps 715 mmHg 86%
    20:00 +7°C° 0 mm 1 mps 715 mmHg 89%
    21:00 +7°C° 0 mm 1 mps 716 mmHg 93%
    22:00 +6°C° 0 mm 1 mps 716 mmHg 96%
    23:00 +6°C° 0 mm 1 mps 716 mmHg 96%

    28 August, Monday

    Time Temperature Precipitation Wind Pressure Humidity
    00:00 +5°C° 0 mm 1 mps 716 mmHg 96%
    01:00 +5°C° 0 mm 1 mps 715 mmHg 96%
    02:00 +5°C° 0 mm 1 mps 715 mmHg 96%
    03:00 +4°C° 0 mm 1 mps 715 mmHg 96%
    04:00 +4°C° 0 mm 1 mps 715 mmHg 96%
    05:00 +4°C° 0 mm 1 mps 715 mmHg 95%
    06:00 +4°C° 0 mm 1 mps 716 mmHg 94%
    07:00 +4°C° 0 mm 1 mps 716 mmHg 93%
    08:00 +7°C° 0 mm 1 mps 716 mmHg 82%
    09:00 +10°C° 0 mm 1 mps 716 mmHg 72%
    10:00 +13°C° 0 mm 2 mps 717 mmHg 61%
    11:00 +14°C° 0 mm 2 mps 716 mmHg 58%
    12:00 +14°C° 0 mm 2 mps 716 mmHg 54%
    13:00 +15°C° 0 mm 2 mps 715 mmHg 51%
    14:00 +15°C° 0.1 mm 2 mps 715 mmHg 54%
    15:00 +14°C° 0.1 mm 1 mps 714 mmHg 57%
    16:00 +14°C° 0.1 mm 1 mps 714 mmHg 60%
    17:00 +12°C° 0 mm 1 mps 714 mmHg 71%
    18:00 +10°C° 0 mm 1 mps 714 mmHg 82%
    19:00 +8°C° 0 mm 1 mps 714 mmHg 93%
    20:00 +7°C° 0 mm 1 mps 714 mmHg 94%
    21:00 +7°C° 0 mm 1 mps 715 mmHg 96%
    22:00 +7°C° 0 mm 1 mps 715 mmHg 97%
    23:00 +6°C° 0 mm 1 mps 715 mmHg 97%
    Show more